{"data":{"norad_id":64933,"intl_designator":"2025-158B","name":"STARLINK-34737","alt_names":[],"object_type":"PAYLOAD","status":"ACTIVE","operator":null,"country":"US","launch_date":"2025-07-27","launch_site_code":"AFWTR","launch_vehicle":null,"mission":null,"orbit_class":"UNKNOWN","rcs_meters":null,"size_class":null,"mass_kg":null,"dimensions":null,"purposes":["comms"],"wikipedia_slug":null,"has_3d_model":false,"image_url":null,"decayed_at":null,"tle_current":{"epoch":"2026-09-20T12:57:06.848640Z","epoch_age_seconds":120868,"freshness":"FRESH","line1":"1 64933U 25158B   26263.53966260  .00019516  00000+0  60400-3 0  9996","line2":"2 64933  97.2821 121.8560 0003382  88.5439 271.6191 15.33507911 64712","mean_motion":15.33507911,"eccentricity":0.0003382,"inclination_deg":97.2821,"raan_deg":121.856,"arg_perigee_deg":88.5439,"mean_anomaly_deg":271.6191,"bstar":0.000604,"rev_number":6471,"period_min":93.902352225948,"perigee_km":463.0415326696,"apogee_km":467.67047133615,"semimajor_km":6843.4930020029,"source":"CELESTRAK","updated_at":"2026-09-21T09:00:35.486078Z"}}}